This is the latest recevied weather packets stored in our database for station/object K3HM. If no packets are shown the sender has not sent any weather packets the latest 10 day(s).
| Time | Temp. | Humidity | Pressure | Rain* | Wind** | Luminosity | Snow |
|---|---|---|---|---|---|---|---|
| 1777127241 | 13.33° C | 95% | 1011.3 hPa | 1.27 mm | - | 143 W/m² | - |
| 1777126937 | 13.33° C | 95% | 1011.3 hPa | 3.05 mm | - | 117 W/m² | - |
| 1777126633 | 13.33° C | 94% | 1011.3 hPa | 1.78 mm | - | 92 W/m² | - |
| 1777126329 | 13.33° C | 93% | 1011.1 hPa | 1.78 mm | - | 99 W/m² | - |
| 1777126025 | 13.33° C | 93% | 1011.2 hPa | 1.78 mm | - | 122 W/m² | - |
| 1777125723 | 13.89° C | 93% | 1011.3 hPa | 1.78 mm | - | 124 W/m² | - |
| 1777125417 | 13.33° C | 92% | 1011.3 hPa | 1.27 mm | - | 103 W/m² | - |
| 1777125113 | 13.33° C | 91% | 1011.2 hPa | 0 mm | - | 65 W/m² | - |
| 1777124809 | 13.89° C | 91% | 1011.2 hPa | 0 mm | - | 82 W/m² | - |
| 1777124504 | 13.33° C | 90% | 1011.1 hPa | 0 mm | - | 106 W/m² | - |
| 1777124201 | 13.89° C | 90% | 1011 hPa | 0 mm | - | 92 W/m² | - |
| 1777123898 | 13.89° C | 88% | 1011 hPa | 0 mm | - | 71 W/m² | - |
| 1777123594 | 13.89° C | 87% | 1010.9 hPa | 0 mm | - | 62 W/m² | - |
| 1777123291 | 13.89° C | 86% | 1010.9 hPa | 0 mm | - | 53 W/m² | - |
| 1777122987 | 13.89° C | 86% | 1010.8 hPa | 0 mm | - | 48 W/m² | - |
| 1777122683 | 13.89° C | 86% | 1010.8 hPa | 0 mm | - | 52 W/m² | - |
| 1777122378 | 13.89° C | 85% | 1010.9 hPa | 0 mm | - | 45 W/m² | - |
| 1777122075 | 13.89° C | 85% | 1010.8 hPa | 0 mm | - | 39 W/m² | - |
| 1777121771 | 13.89° C | 84% | 1010.7 hPa | 0 mm | - | 47 W/m² | - |
| 1777121469 | 14.44° C | 83% | 1010.8 hPa | 0 mm | - | 60 W/m² | - |
| 1777121168 | 14.44° C | 84% | 1010.7 hPa | 0 mm | - | 58 W/m² | - |
| 1777120867 | 14.44° C | 85% | 1010.5 hPa | 0 mm | - | 87 W/m² | - |
| 1777120562 | 15° C | 83% | 1010.5 hPa | 0 mm | - | 101 W/m² | - |
| 1777120258 | 14.44° C | 83% | 1010.7 hPa | 0 mm | - | 112 W/m² | - |
| 1777119953 | 14.44° C | 83% | 1010.8 hPa | 0 mm | - | 104 W/m² | - |
* Rain latest hour (hover to see other rain measurements)
** Current wind speed in m/s (hover to see current wind gust speed)